Theta_e
345 342 339 339 337 335 333 335 337 337 335 335 335 333 332 330 330 330 329 328 328 328
341 341 338 334 337 336 337 337 335 335 334 335 335 333 330 330 329 329 329 329 328 328
343 342 339 337 330 329 330 332 334 335 332 333 333 332 329 326 328 325 327 328 328 328
338 334 330 328 327 329 329 330 334 336 334 332 329 328 326 326 327 326 326 326 326 326
330 329 327 327 328 332 333 336 334 333 332 332 331 328 327 325 325 323 321 322 322 324
329 329 329 328 329 333 331 328 327 327 327 326 326 326 325 324 323 322 321 321 320 320
330 330 329 330 329 328 327 325 324 323 323 323 321 321 321 321 318 317 319 319 320 319
330 330 327 325 325 325 323 323 322 321 320 319 319 319 315 316 315 314 314 314 316 317
326 325 320 322 323 322 321 321 320 317 317 316 318 312 311 313 311 313 312 311 314 313
319 318 317 319 317 316 315 314 313 312 310 311 311 308 307 309 309 310 310 311 311 312
317 316 315 316 314 313 312 310 309 308 311 310 312 308 305 306 305 307 310 311 310 309
316 313 312 309 312 311 308 309 308 310 309 309 309 304 305 305 307 307 308 309 311 309
314 311 308 307 309 310 309 311 312 310 309 311 308 306 306 305 305 303 304 305 307 306
311 309 308 311 310 309 311 309 307 307 311 310 310 310 304 302 302 304 304 306 305 307
Wind_Speed
7 5 4 4 3 0 2 3 6 6 6 7 7 6 6 4 5 6 6 8 7 8
4 4 5 3 4 2 3 3 4 4 6 6 7 7 6 5 6 6 7 9 8 8
5 5 6 5 3 4 3 4 7 6 6 5 5 5 6 6 6 6 7 7 9 9
5 7 5 3 0 3 4 5 7 6 5 4 4 5 5 6 6 6 8 8 9 9
6 6 4 1 3 5 6 5 6 4 4 4 3 3 4 5 5 6 6 7 6 7
4 5 4 3 5 4 2 5 6 6 6 5 5 4 4 3 4 5 5 5 4 5
6 5 1 1 4 5 4 6 5 6 6 6 6 6 6 5 5 6 5 6 5 6
4 7 6 4 6 5 6 5 6 6 6 6 3 2 4 5 5 5 6 7 6 6
5 5 5 6 6 6 5 6 5 6 6 6 4 9 8 4 4 5 6 7 7 7
7 6 6 7 7 6 5 4 3 6 6 5 6 8 8 7 4 5 6 7 7 7
6 6 6 6 6 4 2 1 3 5 6 5 6 11 12 10 5 6 7 5 7 6
6 6 6 4 1 2 1 2 3 4 6 7 4 6 9 7 4 5 7 5 5 4
5 4 2 4 4 4 3 4 3 4 5 5 1 7 22 11 5 6 5 6 7 2
4 2 3 4 3 3 3 7 9 6 6 6 5 7 12 14 5 5 4 4 5 4
Wind_Direction
202 155 164 190 207 290 326 283 218 205 207 201 207 211 218 217 222 223 231 230 225 243
199 132 145 47 55 29 11 305 294 272 239 223 211 209 221 227 227 223 237 242 237 233
150 122 102 98 58 27 341 307 297 278 273 257 247 236 223 252 249 255 255 249 251 248
181 108 94 96 348 293 283 269 265 278 281 295 275 274 281 272 258 250 261 263 259 255
97 98 115 253 268 271 259 277 253 261 271 279 267 258 248 262 278 279 278 274 280 269
172 158 203 221 251 254 10 53 24 29 21 359 323 316 344 334 320 322 310 307 305 300
167 175 204 256 66 95 72 59 45 37 23 14 26 36 18 355 355 348 332 317 294 283
59 108 120 112 107 88 58 33 28 18 2 357 348 18 350 331 333 329 324 317 310 291
115 87 41 94 98 90 66 42 23 346 344 339 336 339 336 321 315 309 298 293 294 288
91 85 70 87 79 71 64 49 358 331 339 323 317 312 316 310 297 295 286 283 285 292
75 76 68 81 84 86 99 13 305 308 317 314 300 351 348 329 294 284 284 282 285 304
60 77 69 40 122 214 226 291 290 308 311 317 359 6 347 338 301 283 284 289 304 295
64 90 30 305 295 231 239 251 290 322 326 323 94 4 300 274 270 277 281 306 300 193
31 10 316 315 245 277 3 10 337 345 333 310 221 259 269 269 278 276 298 297 302 314